SR9NLI Weather Reports


Display with metric or nautical units.
time (UTC)temp
F
wind
direction
speed
MPH
gust
MPH
rain 1hr
in
rain 24hr
in
rain mn
in
humidity
%
barometer
mb
20260505052230 54 115 2.0 4.0 0.00 0.00 0.00 100 953.2
20260505052027 54 121 1.0 3.0 0.00 0.00 0.00 100 953.2
20260505051926 54 131 1.0 3.0 0.00 0.00 0.00 100 953.2
20260505051820 54 131 1.0 3.0 0.00 0.00 0.00 100 953.2
20260505051616 54 119 1.0 2.0 0.00 0.00 0.00 100 953.2
20260505051413 53 129 2.0 4.0 0.00 0.00 0.00 100 953.3
20260505051313 53 131 2.0 4.0 0.00 0.00 0.00 100 953.2
20260505051210 53 132 2.0 4.0 0.00 0.00 0.00 100 953.3
20260505051007 53 106 2.0 5.0 0.00 0.00 0.00 100 953.2
20260505050803 53 111 2.0 5.0 0.00 0.00 0.00 100 953.2
20260505050703 53 116 2.0 4.0 0.00 0.00 0.00 100 953.2
20260505050600 53 123 1.0 4.0 0.00 0.00 0.00 100 953.3
20260505050357 54 0 0.0 2.0 0.00 0.00 0.00 100 953.4
20260505050153 53 70 1.0 3.0 0.00 0.00 0.00 100 953.3
20260505041748 50 152 2.0 5.0 0.00 0.00 0.00 100 953.5
20260505041642 50 144 2.0 5.0 0.00 0.00 0.00 100 953.6
20260505041439 50 132 3.0 5.0 0.00 0.00 0.00 100 953.5
20260505041236 50 133 2.0 4.0 0.00 0.00 0.00 100 953.5
20260505041135 50 134 2.0 3.0 0.00 0.00 0.00 100 953.6
20260505041033 50 151 2.0 4.0 0.00 0.00 0.00 100 953.6
20260505040830 50 155 3.0 5.0 0.00 0.00 0.00 100 953.5
20260505040626 49 153 3.0 5.0 0.00 0.00 0.00 100 953.6
20260505040526 49 148 3.0 5.0 0.00 0.00 0.00 100 953.6
20260505040424 49 148 3.0 6.0 0.00 0.00 0.00 100 953.5
20260505040221 49 149 3.0 6.0 0.00 0.00 0.00 100 953.5
20260505040017 49 151 2.0 4.0 0.00 0.00 0.00 100 953.5
20260505035916 50 136 2.0 4.0 0.00 0.00 0.00 100 953.5
20260505035814 50 129 2.0 4.0 0.00 0.00 0.00 100 953.5
20260505035610 50 116 2.0 3.0 0.00 0.00 0.00 100 953.5
20260505035407 50 120 2.0 3.0 0.00 0.00 0.00 100 953.5
20260505035306 50 113 2.0 3.0 0.00 0.00 0.00 100 953.4
20260505035204 50 109 2.0 3.0 0.00 0.00 0.00 100 953.7
20260505035000 51 77 1.0 3.0 0.00 0.00 0.00 100 953.6
20260505034757 50 346 1.0 3.0 0.00 0.00 0.00 100 953.7
20260505034656 50 347 2.0 5.0 0.00 0.00 0.00 100 953.6
20260505034553 50 350 3.0 5.0 0.00 0.00 0.00 100 953.6
20260505034350 51 348 3.0 5.0 0.00 0.00 0.00 100 953.6
20260505034147 51 302 2.0 3.0 0.00 0.00 0.00 100 953.6
20260505034046 50 286 1.0 3.0 0.00 0.00 0.00 100 953.6
20260505033944 50 262 1.0 2.0 0.00 0.00 0.00 100 953.6
20260505033741 50 203 1.0 3.0 0.00 0.00 0.00 100 953.6
20260505033537 50 188 2.0 4.0 0.00 0.00 0.00 100 953.6
20260505033437 50 187 2.0 4.0 0.00 0.00 0.00 100 953.7
20260505033335 50 182 2.0 4.0 0.00 0.00 0.00 100 953.7
20260505033132 50 176 2.0 4.0 0.00 0.00 0.00 100 953.6
20260505032928 50 173 2.0 5.0 0.00 0.00 0.00 100 953.7
20260505032828 50 174 2.0 5.0 0.00 0.00 0.00 100 953.7
20260505032725 50 174 2.0 5.0 0.00 0.00 0.00 100 953.7
20260505032522 50 174 2.0 4.0 0.00 0.00 0.00 100 953.7
20260505032319 50 150 2.0 4.0 0.00 0.00 0.00 100 953.7
20260505032218 51 133 2.0 4.0 0.00 0.00 0.00 100 953.7
20260505032115 51 71 2.0 3.0 0.00 0.00 0.00 100 953.7
20260505031912 51 38 1.0 2.0 0.00 0.00 0.00 100 953.8
20260505031709 51 15 1.0 2.0 0.00 0.00 0.00 100 953.8
20260505031608 51 10 1.0 2.0 0.00 0.00 0.00 100 953.8
20260505031503 51 0 1.0 2.0 0.00 0.00 0.00 100 953.7
20260505031300 51 352 0.0 2.0 0.00 0.00 0.00 100 953.9
20260505031056 51 0 0.0 2.0 0.00 0.00 0.00 100 954.0
20260505030956 51 199 1.0 3.0 0.00 0.00 0.00 100 953.8
20260505030854 51 206 1.0 3.0 0.00 0.00 0.00 100 953.8
20260505030651 50 228 1.0 3.0 0.00 0.00 0.00 100 953.9
20260505030435 51 0 1.0 2.0 0.00 0.00 0.00 100 953.9
20260505030334 51 0 1.0 2.0 0.00 0.00 0.00 100 954.0
20260505030231 51 0 1.0 2.0 0.00 0.00 0.00 100 953.9
20260505030028 51 46 1.0 2.0 0.00 0.00 0.00 100 953.9
20260505025824 51 322 2.0 4.0 0.00 0.00 0.00 100 954.0
20260505025724 51 299 2.0 5.0 0.00 0.00 0.00 100 954.0
20260505025621 51 295 3.0 5.0 0.00 0.00 0.00 100 954.0
20260505025418 51 298 3.0 5.0 0.00 0.00 0.00 100 954.0
20260505025215 51 305 3.0 5.0 0.00 0.00 0.00 100 954.0
20260505025114 51 312 3.0 5.0 0.00 0.00 0.00 100 954.0
20260505025012 51 317 4.0 5.0 0.00 0.00 0.00 100 954.1
20260505024808 51 322 4.0 5.0 0.00 0.00 0.00 100 954.1
20260505024605 51 312 3.0 5.0 0.00 0.00 0.00 100 954.2
20260505024503 51 308 4.0 5.0 0.00 0.00 0.00 100 954.2
20260505024401 51 306 4.0 5.0 0.00 0.00 0.00 100 954.1
20260505024158 51 302 3.0 5.0 0.00 0.00 0.00 100 954.1
20260505023955 51 294 2.0 4.0 0.00 0.00 0.00 100 954.2
20260505023854 51 292 2.0 3.0 0.00 0.00 0.00 100 954.2
20260505023751 51 296 2.0 4.0 0.00 0.00 0.00 100 954.1
20260505023548 51 303 2.0 4.0 0.00 0.00 0.00 100 954.2
20260505023345 50 307 2.0 3.0 0.00 0.00 0.00 100 954.3
20260505023245 50 302 2.0 3.0 0.00 0.00 0.00 100 954.2
20260505023143 50 301 2.0 3.0 0.00 0.00 0.00 100 954.3
20260505022940 50 298 2.0 3.0 0.00 0.00 0.00 100 954.3
20260505022737 51 304 2.0 3.0 0.00 0.00 0.00 100 954.3
20260505022636 51 304 2.0 3.0 0.00 0.00 0.00 100 954.2
20260505022534 50 303 2.0 4.0 0.00 0.00 0.00 100 954.2
20260505022330 50 310 3.0 4.0 0.00 0.00 0.00 100 954.3
20260505022127 51 323 2.0 4.0 0.00 0.00 0.00 100 954.3
20260505022027 51 319 2.0 4.0 0.00 0.00 0.00 100 954.3
20260505021924 51 314 2.0 4.0 0.00 0.00 0.00 100 954.3
20260505021721 51 309 3.0 4.0 0.00 0.00 0.00 100 954.3
20260505021518 51 317 3.0 4.0 0.00 0.00 0.00 100 954.3
20260505021417 51 317 3.0 4.0 0.00 0.00 0.00 100 954.4
20260505021311 51 316 3.0 4.0 0.00 0.00 0.00 100 954.3
20260505021108 51 311 2.0 3.0 0.00 0.00 0.00 100 954.4
20260505020905 51 303 2.0 3.0 0.00 0.00 0.00 100 954.4
20260505020804 51 297 2.0 3.0 0.00 0.00 0.00 100 954.3
20260505020702 51 274 2.0 3.0 0.00 0.00 0.00 100 954.3
20260505020458 50 282 2.0 3.0 0.00 0.00 0.00 100 954.4
20260505020255 51 321 2.0 3.0 0.00 0.00 0.00 100 954.4
20260505020155 50 326 2.0 3.0 0.00 0.00 0.00 100 954.5
20260505020053 50 314 2.0 3.0 0.00 0.00 0.00 100 954.4
20260505015849 50 279 2.0 4.0 0.00 0.00 0.00 100 954.5
20260505015646 48 279 2.0 4.0 0.00 0.00 0.00 100 954.5
20260505015545 48 283 2.0 4.0 0.00 0.00 0.00 100 954.5
20260505015443 48 269 2.0 4.0 0.00 0.00 0.00 100 954.5
20260505015240 49 300 1.0 3.0 0.00 0.00 0.00 100 954.6
20260505015038 48 321 2.0 5.0 0.00 0.00 0.00 100 954.5
20260505014937 48 323 3.0 5.0 0.00 0.00 0.00 100 954.6
20260505014835 49 323 2.0 5.0 0.00 0.00 0.00 100 954.6
20260505014632 50 321 1.0 2.0 0.00 0.00 0.00 100 954.5
20260505014428 50 355 2.0 3.0 0.00 0.00 0.00 100 954.6
20260505014328 50 7 2.0 3.0 0.00 0.00 0.00 100 954.6
20260505014226 50 8 2.0 3.0 0.00 0.00 0.00 100 954.6
20260505014022 50 6 2.0 3.0 0.00 0.00 0.00 100 954.6
20260505013819 51 351 2.0 2.0 0.00 0.00 0.00 100 954.7
20260505013718 50 341 2.0 2.0 0.00 0.00 0.00 100 954.6
20260505013616 50 333 1.0 2.0 0.00 0.00 0.00 100 954.6
20260505013412 50 319 1.0 3.0 0.00 0.00 0.00 100 954.6
20260505013209 51 131 1.0 5.0 0.00 0.00 0.00 100 954.6
20260505013108 51 136 2.0 5.0 0.00 0.00 0.00 100 954.6
20260505013005 52 143 2.0 5.0 0.00 0.00 0.00 100 954.6
20260505012803 50 169 2.0 5.0 0.00 0.00 0.00 100 954.6
20260505012559 50 176 2.0 4.0 0.00 0.00 0.00 100 954.6
20260505012459 50 179 2.0 4.0 0.00 0.00 0.00 100 954.6
20260505012356 50 183 2.0 4.0 0.00 0.00 0.00 100 954.5
20260505012153 50 304 1.0 3.0 0.00 0.00 0.00 100 954.5
20260505011950 50 310 1.0 2.0 0.00 0.00 0.00 100 954.6
20260505011849 50 303 1.0 2.0 0.00 0.00 0.00 100 954.6
20260505011747 50 0 1.0 2.0 0.00 0.00 0.00 100 954.7
20260505011544 51 0 1.0 4.0 0.00 0.00 0.00 100 954.7
20260505011341 51 296 2.0 4.0 0.00 0.00 0.00 100 954.7
20260505011241 50 304 2.0 4.0 0.00 0.00 0.00 100 954.7
20260505011134 50 0 2.0 4.0 0.00 0.00 0.00 100 954.7
20260505010931 52 147 2.0 4.0 0.00 0.00 0.00 100 954.7
20260505010728 52 142 1.0 4.0 0.00 0.00 0.00 100 954.7
20260505010627 52 0 1.0 3.0 0.00 0.00 0.00 100 954.7
20260505010525 51 311 1.0 2.0 0.00 0.00 0.00 100 954.6
20260505010322 51 0 1.0 3.0 0.00 0.00 0.00 100 954.7
20260505010119 52 156 1.0 3.0 0.00 0.00 0.00 100 954.7
20260505010018 52 166 1.0 3.0 0.00 0.00 0.00 100 954.7
20260505005915 52 0 1.0 2.0 0.00 0.00 0.00 100 954.7
20260505005712 52 0 0.0 2.0 0.00 0.00 0.00 100 954.7
20260505005509 52 168 1.0 2.0 0.00 0.00 0.00 100 954.7
20260505005408 52 160 1.0 2.0 0.00 0.00 0.00 100 954.7
20260505005306 52 161 1.0 2.0 0.00 0.00 0.00 100 954.7
20260505005103 52 168 1.0 2.0 0.00 0.00 0.00 100 954.7
20260505004900 51 0 0.0 2.0 0.00 0.00 0.00 100 954.8
20260505004759 51 0 1.0 3.0 0.00 0.00 0.00 100 954.7
20260505004656 52 151 1.0 4.0 0.00 0.00 0.00 100 954.8
20260505004454 53 130 2.0 4.0 0.00 0.00 0.00 100 954.7
20260505004250 53 148 3.0 4.0 0.00 0.00 0.00 100 954.8
20260505004149 53 152 3.0 5.0 0.00 0.00 0.00 100 954.8
20260505004047 52 155 3.0 6.0 0.00 0.00 0.00 100 954.7
20260505003844 52 156 4.0 6.0 0.00 0.00 0.00 100 954.8
20260505003641 52 167 2.0 5.0 0.00 0.00 0.00 100 954.7
20260505003540 51 177 1.0 4.0 0.00 0.00 0.00 100 954.7
20260505003438 51 192 0.0 2.0 0.00 0.00 0.00 100 954.8
20260505003235 51 0 0.0 2.0 0.00 0.00 0.00 100 954.8
20260505003032 51 0 0.0 1.0 0.00 0.00 0.00 100 954.8
20260505002932 51 191 1.0 3.0 0.00 0.00 0.00 100 954.8
20260505002830 51 185 0.0 3.0 0.00 0.00 0.00 100 955.0
20260505002627 51 0 0.0 3.0 0.00 0.00 0.00 100 954.9
20260505002413 51 286 1.0 3.0 0.00 0.00 0.00 100 954.9
20260505002313 51 300 2.0 3.0 0.00 0.00 0.00 100 954.9
20260505002210 51 296 2.0 3.0 0.00 0.00 0.00 100 954.9
20260505002007 51 305 1.0 3.0 0.00 0.00 0.00 100 954.9
20260505001804 51 0 0.0 3.0 0.00 0.00 0.00 100 954.9
20260505001704 51 0 0.0 1.0 0.00 0.00 0.00 100 955.0
20260505001601 51 263 1.0 3.0 0.00 0.00 0.00 100 955.0
20260505001359 51 287 2.0 4.0 0.00 0.00 0.00 100 955.0
20260505001156 51 301 3.0 4.0 0.00 0.00 0.00 100 955.0
20260505001056 51 300 3.0 4.0 0.00 0.00 0.00 100 955.1
20260505000950 51 302 3.0 5.0 0.00 0.00 0.00 100 955.1
20260505000747 51 298 3.0 5.0 0.00 0.00 0.00 100 955.1
20260505000543 51 288 2.0 4.0 0.00 0.00 0.00 100 955.1
20260505000443 51 294 2.0 4.0 0.00 0.00 0.00 100 955.1
20260505000340 51 299 2.0 4.0 0.00 0.00 0.00 100 955.2
20260505000137 51 308 2.0 4.0 0.00 0.00 0.00 100 955.1
20260504235934 51 314 2.0 4.0 0.00 0.00 0.00 100 955.1
20260504235833 51 320 2.0 4.0 0.00 0.00 0.00 100 955.2
20260504235731 51 322 2.0 3.0 0.00 0.00 0.00 100 955.2
20260504235527 51 305 2.0 3.0 0.00 0.00 0.00 100 955.2
20260504235324 51 302 1.0 2.0 0.00 0.00 0.00 100 955.2
20260504235224 51 301 1.0 2.0 0.00 0.00 0.00 100 955.2
20260504235121 51 311 2.0 3.0 0.00 0.00 0.00 100 955.3
20260504234918 51 330 2.0 3.0 0.00 0.00 0.00 100 955.3
20260504234715 51 337 3.0 4.0 0.00 0.00 0.00 100 955.3
20260504234614 51 334 3.0 4.0 0.00 0.00 0.00 100 955.2
20260504234511 51 326 3.0 4.0 0.00 0.00 0.00 100 955.2
20260504234308 51 320 3.0 4.0 0.00 0.00 0.00 100 955.3
20260504234105 51 316 2.0 4.0 0.00 0.00 0.00 100 955.4
20260504234004 51 322 2.0 4.0 0.00 0.00 0.00 100 955.3
20260504233902 51 356 3.0 5.0 0.00 0.00 0.00 100 955.3
20260504233658 52 3 2.0 5.0 0.00 0.00 0.00 100 955.2
20260504233455 52 4 2.0 5.0 0.00 0.00 0.00 100 955.3
20260504233354 52 8 2.0 4.0 0.00 0.00 0.00 100 955.3
20260504233252 52 7 2.0 4.0 0.00 0.00 0.00 100 955.3
20260504233048 52 358 1.0 2.0 0.00 0.00 0.00 100 955.3
20260504232845 53 151 2.0 5.0 0.00 0.00 0.00 100 955.3
20260504232745 53 151 2.0 5.0 0.00 0.00 0.00 100 955.4
20260504232643 53 152 4.0 6.0 0.00 0.00 0.00 100 955.3
20260504232440 53 140 5.0 8.0 0.00 0.00 0.00 100 955.4
20260504232236 54 126 6.0 8.0 0.00 0.00 0.00 100 955.3
20260504232135 54 126 6.0 8.0 0.00 0.00 0.00 100 955.3
20260504232033 53 126 6.0 8.0 0.00 0.00 0.00 100 955.3
20260504231830 53 132 6.0 8.0 0.00 0.00 0.00 100 955.3
20260504231628 53 155 6.0 8.0 0.00 0.00 0.00 100 955.3
20260504231527 53 157 5.0 7.0 0.00 0.00 0.00 100 955.4
20260504231424 53 153 5.0 8.0 0.00 0.00 0.00 100 955.4
20260504231221 53 133 5.0 9.0 0.00 0.00 0.00 100 955.3
20260504231018 53 130 5.0 7.0 0.00 0.00 0.00 100 955.4
20260504230917 53 130 5.0 9.0 0.00 0.00 0.00 100 955.3
20260504230811 53 134 6.0 9.0 0.00 0.00 0.00 100 955.4
20260504230608 54 147 6.0 9.0 0.00 0.00 0.00 100 955.4
20260504230405 53 150 6.0 8.0 0.00 0.00 0.00 100 955.4
20260504230304 53 151 6.0 9.0 0.00 0.00 0.00 100 955.5
20260504230201 53 149 6.0 9.0 0.00 0.00 0.00 100 955.4
20260504225958 54 137 6.0 9.0 0.00 0.00 0.00 100 955.5
20260504225755 54 132 5.0 8.0 0.00 0.00 0.00 100 955.5
20260504225654 54 132 5.0 7.0 0.00 0.00 0.00 100 955.5
20260504225551 54 130 5.0 7.0 0.00 0.00 0.00 100 955.5
20260504225348 54 131 4.0 7.0 0.00 0.00 0.00 100 955.5
20260504225145 54 130 4.0 8.0 0.00 0.00 0.00 100 955.6
20260504225044 54 123 5.0 9.0 0.00 0.00 0.00 100 955.6
20260504224942 54 122 4.0 9.0 0.00 0.00 0.00 100 955.6
20260504224738 54 128 4.0 9.0 0.00 0.00 0.00 100 955.6
20260504224536 54 129 5.0 8.0 0.00 0.00 0.00 100 955.7
20260504224435 54 129 5.0 8.0 0.00 0.00 0.00 100 955.8
20260504224333 55 124 5.0 8.0 0.00 0.00 0.00 100 955.7
20260504224130 54 124 5.0 9.0 0.00 0.00 0.00 100 955.6
20260504223926 55 123 5.0 9.0 0.00 0.00 0.00 100 955.7
20260504223826 56 124 6.0 9.0 0.00 0.00 0.00 100 955.7
20260504223723 56 127 5.0 8.0 0.00 0.00 0.00 100 955.7
20260504223520 54 130 4.0 8.0 0.00 0.00 0.00 100 955.7
20260504223317 54 123 5.0 8.0 0.00 0.00 0.00 100 955.7
20260504223216 54 121 5.0 8.0 0.00 0.00 0.00 100 955.6
20260504223113 54 124 5.0 8.0 0.00 0.00 0.00 100 955.7
20260504222910 54 129 4.0 8.0 0.00 0.00 0.00 100 955.7
20260504222707 54 134 4.0 8.0 0.00 0.00 0.00 100 955.6
20260504222606 54 132 4.0 8.0 0.00 0.00 0.00 100 955.7
20260504222504 54 128 4.0 8.0 0.00 0.00 0.00 100 955.8
20260504222301 54 124 5.0 8.0 0.00 0.00 0.00 100 955.7
20260504222057 54 127 5.0 7.0 0.00 0.00 0.00 100 955.9
20260504221957 54 127 5.0 6.0 0.00 0.00 0.00 100 955.7
20260504221854 54 128 4.0 6.0 0.00 0.00 0.00 100 955.8
20260504221651 54 125 4.0 6.0 0.00 0.00 0.00 100 955.8
20260504221448 53 120 4.0 6.0 0.00 0.00 0.00 100 955.7
20260504221347 54 122 4.0 6.0 0.00 0.00 0.00 100 955.7
20260504221245 54 124 4.0 7.0 0.00 0.00 0.00 100 955.7
20260504221041 55 118 4.0 7.0 0.00 0.00 0.00 100 955.7
20260504220838 54 109 5.0 7.0 0.00 0.00 0.00 100 955.7
20260504220737 54 107 5.0 7.0 0.00 0.00 0.00 100 955.6
20260504220631 54 106 5.0 7.0 0.00 0.00 0.00 100 955.7
20260504220428 55 105 4.0 6.0 0.00 0.00 0.00 100 955.8
20260504220225 55 110 4.0 7.0 0.00 0.00 0.00 100 955.8
20260504220124 56 119 4.0 7.0 0.00 0.00 0.00 100 955.7
20260504220022 56 125 4.0 7.0 0.00 0.00 0.00 100 955.7
20260504215819 56 130 4.0 8.0 0.00 0.00 0.00 100 955.8
20260504215616 56 127 5.0 8.0 0.00 0.00 0.00 100 955.8
20260504215515 57 127 5.0 7.0 0.00 0.00 0.00 100 955.7
20260504215413 56 129 5.0 7.0 0.00 0.00 0.00 100 955.8
20260504215210 56 140 5.0 7.0 0.00 0.00 0.00 100 955.8
20260504215007 57 142 4.0 7.0 0.00 0.00 0.00 100 955.8
20260504214906 55 131 5.0 7.0 0.00 0.00 0.00 100 955.8
20260504214804 55 130 5.0 8.0 0.00 0.00 0.00 100 955.8
20260504214547 55 127 5.0 8.0 0.00 0.00 0.00 100 955.7
20260504214345 56 127 4.0 8.0 0.00 0.00 0.00 100 955.7
20260504214243 57 130 4.0 7.0 0.00 0.00 0.00 100 955.6
20260504214141 57 130 4.0 7.0 0.00 0.00 0.00 100 955.8
20260504213939 58 129 4.0 7.0 0.00 0.00 0.00 100 955.7
20260504213736 59 148 3.0 8.0 0.00 0.00 0.00 100 955.7
20260504213635 58 154 3.0 8.0 0.00 0.00 0.00 100 955.8
20260504213532 58 154 4.0 8.0 0.00 0.00 0.00 100 955.8
20260504213330 57 139 4.0 8.0 0.00 0.00 0.00 100 955.9
20260504213127 57 130 3.0 6.0 0.00 0.00 0.00 100 955.7
20260504213026 58 130 3.0 7.0 0.00 0.00 0.00 100 955.8
20260504212924 58 131 3.0 7.0 0.00 0.00 0.00 100 955.9
20260504212720 57 128 3.0 7.0 0.00 0.00 0.00 100 955.8
20260504212517 58 129 4.0 7.0 0.00 0.00 0.00 100 955.9
20260504212416 57 125 4.0 7.0 0.00 0.00 0.00 100 955.9
20260504212313 56 121 4.0 7.0 0.00 0.00 0.00 100 955.7
20260504212110 56 118 4.0 7.0 0.00 0.00 0.00 100 955.8
20260504211907 56 122 4.0 7.0 0.00 0.00 0.00 100 955.8
20260504211806 55 120 4.0 7.0 0.00 0.00 0.00 100 955.7
20260504211704 55 110 4.0 8.0 0.00 0.00 0.00 100 955.7
20260504211501 56 106 5.0 8.0 0.00 0.00 0.00 100 955.8
20260504211258 56 112 4.0 6.0 0.00 0.00 0.00 100 955.8
20260504211157 56 108 4.0 7.0 0.00 0.00 0.00 100 955.8
20260504211055 57 110 4.0 7.0 0.00 0.00 0.00 100 955.8
20260504210852 59 118 3.0 9.0 0.00 0.00 0.00 100 955.8
20260504210649 61 245 2.0 9.0 0.00 0.00 0.00 100 955.8
20260504210549 62 211 2.0 9.0 0.00 0.00 0.00 100 955.8
20260504210443 62 209 2.0 7.0 0.00 0.00 0.00 100 955.8
20260504210240 62 207 2.0 11.0 0.00 0.00 0.00 100 955.9
20260504210037 62 221 2.0 11.0 0.00 0.00 0.00 100 955.7
20260504205936 62 231 2.0 7.0 0.00 0.00 0.00 100 955.7
20260504205833 62 233 2.0 7.0 0.00 0.00 0.00 100 955.8
20260504205630 62 223 2.0 8.0 0.00 0.00 0.00 100 955.7
20260504205428 62 199 2.0 8.0 0.00 0.00 0.00 100 955.7
20260504205327 62 198 2.0 8.0 0.00 0.00 0.00 100 955.6
20260504205224 62 203 2.0 9.0 0.00 0.00 0.00 100 955.6
20260504205021 62 220 2.0 9.0 0.00 0.00 0.00 100 955.7
20260504204818 62 222 2.0 12.0 0.00 0.00 0.00 100 955.7
20260504204717 62 222 2.0 12.0 0.00 0.00 0.00 100 955.6
20260504204614 62 220 2.0 12.0 0.00 0.00 0.00 100 955.6
20260504204411 62 233 1.0 6.0 0.00 0.00 0.00 100 955.6
20260504204209 62 234 2.0 8.0 0.00 0.00 0.00 100 955.6
20260504204108 62 233 2.0 8.0 0.00 0.00 0.00 100 955.6
20260504204005 62 222 2.0 8.0 0.00 0.00 0.00 100 955.6
20260504203802 62 227 2.0 8.0 0.00 0.00 0.00 100 955.7
20260504203558 62 222 1.0 6.0 0.00 0.00 0.00 100 955.6
20260504203457 62 233 1.0 6.0 0.00 0.00 0.00 100 955.7
20260504203354 62 238 1.0 6.0 0.00 0.00 0.00 100 955.7
20260504203151 62 220 1.0 6.0 0.00 0.00 0.00 100 955.6
20260504202948 62 206 2.0 7.0 0.00 0.00 0.00 100 955.5
20260504202847 63 207 2.0 7.0 0.00 0.00 0.00 100 955.7
20260504202744 63 209 2.0 8.0 0.00 0.00 0.00 100 955.6
20260504202541 63 216 2.0 8.0 0.00 0.00 0.00 100 955.7
20260504202338 63 224 2.0 8.0 0.00 0.00 0.00 100 955.6
20260504202237 63 224 2.0 8.0 0.00 0.00 0.00 100 955.6
20260504202135 63 220 2.0 7.0 0.00 0.00 0.00 100 955.6
20260504201932 63 220 2.0 7.0 0.00 0.00 0.00 100 955.7
20260504201730 63 226 2.0 8.0 0.00 0.00 0.00 100 955.6
20260504201629 63 215 2.0 8.0 0.00 0.00 0.00 100 955.6
20260504201526 63 215 2.0 10.0 0.00 0.00 0.00 100 955.6
20260504201323 63 219 3.0 16.0 0.00 0.00 0.00 100 955.6
20260504201120 63 222 2.0 16.0 0.00 0.00 0.00 100 955.6
20260504201019 63 219 2.0 16.0 0.00 0.00 0.00 100 955.5
20260504200917 63 223 2.0 8.0 0.00 0.00 0.00 100 955.6
20260504200714 63 222 2.0 8.0 0.00 0.00 0.00 100 955.6
20260504200511 63 218 2.0 7.0 0.00 0.00 0.00 100 955.6
20260504200410 63 214 2.0 7.0 0.00 0.00 0.00 100 955.6
20260504200304 63 220 2.0 6.0 0.00 0.00 0.00 100 955.6
20260504200100 63 215 2.0 11.0 0.00 0.00 0.00 100 955.5
20260504195857 63 225 2.0 11.0 0.00 0.00 0.00 100 955.4
20260504195756 63 240 2.0 7.0 0.00 0.00 0.00 100 955.5
20260504195653 64 234 2.0 10.0 0.00 0.00 0.00 100 955.5
20260504195450 64 226 2.0 10.0 0.00 0.00 0.00 100 955.5
20260504195247 64 219 2.0 12.0 0.00 0.00 0.00 100 955.5
20260504195146 63 225 2.0 12.0 0.00 0.00 0.00 100 955.5
20260504195044 63 220 2.0 12.0 0.00 0.00 0.00 100 955.5
20260504194841 63 236 2.0 8.0 0.00 0.00 0.00 100 955.5
20260504194637 63 243 2.0 8.0 0.00 0.00 0.00 100 955.5
20260504194537 63 240 2.0 8.0 0.00 0.00 0.00 100 955.5
20260504194435 63 252 2.0 8.0 0.00 0.00 0.00 100 955.6
20260504194232 64 231 2.0 11.0 0.00 0.00 0.00 100 955.5
20260504194028 64 217 2.0 11.0 0.00 0.00 0.00 100 955.5
20260504193928 64 206 2.0 8.0 0.00 0.00 0.00 100 955.5
20260504193825 64 203 2.0 12.0 0.00 0.00 0.00 100 955.4
20260504193621 64 209 2.0 12.0 0.00 0.00 0.00 100 955.6
20260504193418 64 200 2.0 12.0 0.00 0.00 0.00 100 955.4
20260504193318 64 219 2.0 8.0 0.00 0.00 0.00 100 955.4
20260504193215 64 224 2.0 10.0 0.00 0.00 0.00 100 955.4
20260504193012 64 230 2.0 10.0 0.00 0.00 0.00 100 955.5
20260504192809 64 221 2.0 9.0 0.00 0.00 0.00 100 955.4
20260504192709 64 226 2.0 11.0 0.00 0.00 0.00 100 955.4
20260504192606 64 238 2.0 11.0 0.00 0.00 0.00 100 955.4
20260504192403 64 239 2.0 12.0 0.00 0.00 0.00 100 955.4
20260504192159 64 216 2.0 12.0 0.00 0.00 0.00 100 955.4
20260504192059 64 224 2.0 8.0 0.00 0.00 0.00 100 955.5
20260504191956 65 222 2.0 8.0 0.00 0.00 0.00 100 955.4
20260504191753 65 238 2.0 9.0 0.00 0.00 0.00 100 955.4
20260504191550 65 229 2.0 9.0 0.00 0.00 0.00 100 955.4
20260504191449 65 225 2.0 9.0 0.00 0.00 0.00 100 955.4
20260504191347 65 216 2.0 9.0 0.00 0.00 0.00 100 955.4
20260504191143 65 212 2.0 9.0 0.00 0.00 0.00 100 955.4
20260504190940 65 217 2.0 8.0 0.00 0.00 0.00 100 955.4
20260504190839 65 221 2.0 8.0 0.00 0.00 0.00 100 955.4
20260504190737 65 231 2.0 8.0 0.00 0.00 0.00 100 955.4
20260504190523 65 230 2.0 8.0 0.00 0.00 0.00 100 955.3
20260504190320 65 219 1.0 8.0 0.00 0.00 0.00 100 955.3
20260504190219 65 0 2.0 8.0 0.00 0.00 0.00 100 955.3
20260504190113 65 0 2.0 8.0 0.00 0.00 0.00 100 955.3
20260504185911 65 215 2.0 8.0 0.00 0.00 0.00 100 955.3
20260504185707 65 218 2.0 10.0 0.00 0.00 0.00 100 955.3
20260504185606 65 217 2.0 10.0 0.00 0.00 0.00 100 955.3
20260504185504 65 223 2.0 10.0 0.00 0.00 0.00 100 955.4
20260504185301 65 205 2.0 7.0 0.00 0.00 0.00 100 955.4
20260504185058 65 216 2.0 7.0 0.00 0.00 0.00 100 955.3
20260504184957 65 212 2.0 7.0 0.00 0.00 0.00 100 955.3
20260504184856 65 224 2.0 10.0 0.00 0.00 0.00 100 955.3
20260504184653 65 229 2.0 10.0 0.00 0.00 0.00 100 955.3
20260504184450 65 214 2.0 9.0 0.00 0.00 0.00 100 955.4
20260504184349 65 212 2.0 9.0 0.00 0.00 0.00 100 955.3
20260504184246 65 204 2.0 8.0 0.00 0.00 0.00 100 955.4
20260504184043 65 207 2.0 8.0 0.00 0.00 0.00 100 955.3
20260504183840 65 212 2.0 7.0 0.00 0.00 0.00 100 955.1
20260504183739 65 228 2.0 7.0 0.00 0.00 0.00 100 955.2
20260504183637 65 231 2.0 7.0 0.00 0.00 0.00 100 955.2
20260504183434 65 0 2.0 8.0 0.00 0.00 0.00 100 955.1
20260504183231 66 218 2.0 8.0 0.00 0.00 0.00 100 955.2
20260504183130 66 218 2.0 6.0 0.00 0.00 0.00 100 955.2
20260504183028 66 223 2.0 6.0 0.00 0.00 0.00 100 955.2
20260504182824 66 242 2.0 8.0 0.00 0.00 0.00 100 955.1
20260504182621 66 231 2.0 8.0 0.00 0.00 0.00 100 955.2
20260504182521 66 228 2.0 8.0 0.00 0.00 0.00 100 955.2
20260504182419 66 224 2.0 8.0 0.00 0.00 0.00 100 955.1
20260504182216 66 266 2.0 8.0 0.00 0.00 0.00 100 955.2
20260504182013 67 269 2.0 11.0 0.00 0.00 0.00 100 955.1
20260504181912 67 245 2.0 11.0 0.00 0.00 0.00 100 955.1
20260504181810 67 235 2.0 11.0 0.00 0.00 0.00 100 955.2
20260504181607 67 215 2.0 8.0 0.00 0.00 0.00 100 955.1
20260504181404 67 233 2.0 8.0 0.00 0.00 0.00 100 955.1
20260504181303 67 236 2.0 8.0 0.00 0.00 0.00 100 955.1
20260504181201 67 251 2.0 8.0 0.00 0.00 0.00 100 955.1
20260504180958 67 240 2.0 11.0 0.00 0.00 0.00 100 955.1
20260504180754 67 238 2.0 11.0 0.00 0.00 0.00 100 955.0
20260504180653 67 246 2.0 9.0 0.00 0.00 0.00 100 955.1
20260504180551 67 254 2.0 11.0 0.00 0.00 0.00 100 955.1
20260504180349 67 229 2.0 11.0 0.00 0.00 0.00 100 955.0
20260504180145 67 227 2.0 7.0 0.00 0.00 0.00 100 955.0
20260504180045 67 232 2.0 7.0 0.00 0.00 0.00 100 955.0
20260504175939 67 244 2.0 7.0 0.00 0.00 0.00 100 955.0
20260504175736 67 240 2.0 8.0 0.00 0.00 0.00 100 955.0
20260504175533 67 214 2.0 8.0 0.00 0.00 0.00 100 955.0
20260504175432 67 209 2.0 8.0 0.00 0.00 0.00 100 955.0
20260504175330 67 207 2.0 7.0 0.00 0.00 0.00 100 955.1
20260504175126 67 208 2.0 8.0 0.00 0.00 0.00 100 955.1
20260504174924 67 216 2.0 8.0 0.00 0.00 0.00 100 955.1
20260504174823 67 216 2.0 9.0 0.00 0.00 0.00 100 955.1
20260504174720 67 223 2.0 9.0 0.00 0.00 0.00 100 955.1
20260504174517 67 232 2.0 9.0 0.00 0.00 0.00 100 955.1
20260504174314 67 0 1.0 4.0 0.00 0.00 0.00 100 955.1
20260504174213 67 0 1.0 6.0 0.00 0.00 0.00 100 955.1
20260504174110 68 0 1.0 5.0 0.00 0.00 0.00 100 955.1
20260504173907 68 0 1.0 6.0 0.00 0.00 0.00 100 955.1
20260504173704 68 233 2.0 7.0 0.00 0.00 0.00 100 955.1
20260504173603 68 239 2.0 7.0 0.00 0.00 0.00 100 955.1
20260504173501 68 247 1.0 7.0 0.00 0.00 0.00 100 955.1
20260504173258 68 0 1.0 7.0 0.00 0.00 0.00 100 955.1
20260504173055 68 0 1.0 4.0 0.00 0.00 0.00 100 955.1
20260504172954 68 0 1.0 6.0 0.00 0.00 0.00 100 955.1
20260504172851 68 233 1.0 6.0 0.00 0.00 0.00 100 955.1
20260504172648 69 232 1.0 6.0 0.00 0.00 0.00 100 955.1
20260504172445 69 233 1.0 5.0 0.00 0.00 0.00 100 955.0
20260504172345 69 233 1.0 6.0 0.00 0.00 0.00 100 955.1
20260504172242 69 225 1.0 6.0 0.00 0.00 0.00 100 955.1
20260504172040 69 212 1.0 6.0 0.00 0.00 0.00 100 955.1
20260504171837 69 0 1.0 5.0 0.00 0.00 0.00 100 955.2
20260504171736 69 0 1.0 6.0 0.00 0.00 0.00 100 955.1
20260504171633 69 217 2.0 6.0 0.00 0.00 0.00 100 955.1
20260504171430 69 221 1.0 6.0 0.00 0.00 0.00 100 955.1
20260504171227 70 0 1.0 4.0 0.00 0.00 0.00 100 955.0
20260504171126 70 0 1.0 3.0 0.00 0.00 0.00 100 955.0
20260504171024 70 0 1.0 8.0 0.00 0.00 0.00 100 955.1
20260504170821 70 212 2.0 9.0 0.00 0.00 0.00 100 955.0
20260504170618 70 207 2.0 11.0 0.00 0.00 0.00 100 955.0
20260504170518 71 211 2.0 11.0 0.00 0.00 0.00 100 955.0
20260504170415 71 211 2.0 11.0 0.00 0.00 0.00 100 955.0
20260504170212 71 208 2.0 10.0 0.00 0.00 0.00 100 954.9
20260504160429 72 201 2.0 13.0 0.00 0.00 0.00 100 955.0
20260504160328 72 200 2.0 13.0 0.00 0.00 0.00 100 955.0
20260504160226 72 198 2.0 13.0 0.00 0.00 0.00 100 955.1
20260504151107 74 172 5.0 18.0 0.00 0.00 0.00 100 955.3
20260504150904 73 170 7.0 18.0 0.00 0.00 0.00 100 955.3
20260504150803 73 170 6.0 18.0 0.00 0.00 0.00 100 955.1
20260504150701 74 169 5.0 16.0 0.00 0.00 0.00 100 955.3
20260504150458 74 167 4.0 16.0 0.00 0.00 0.00 100 955.3
20260504150254 75 182 3.0 13.0 0.00 0.00 0.00 100 955.3
20260504150154 75 0 2.0 10.0 0.00 0.00 0.00 100 955.3
20260504141235 73 187 4.0 14.0 0.00 0.00 0.00 100 955.6
20260504141133 73 193 3.0 10.0 0.00 0.00 0.00 100 955.6
20260504140930 73 185 4.0 15.0 0.00 0.00 0.00 100 955.7
20260504140726 73 178 5.0 15.0 0.00 0.00 0.00 100 955.6
20260504140626 73 180 4.0 15.0 0.00 0.00 0.00 100 955.6
20260504140524 73 180 3.0 15.0 0.00 0.00 0.00 100 955.6
20260504140321 73 202 2.0 8.0 0.00 0.00 0.00 100 955.7
20260504140118 73 203 2.0 8.0 0.00 0.00 0.00 100 955.7
20260504130743 73 196 2.0 10.0 0.00 0.00 0.00 100 956.2
20260504130540 73 207 3.0 13.0 0.00 0.00 0.00 100 955.9
20260504130439 73 216 3.0 13.0 0.00 0.00 0.00 100 955.9
20260504130337 74 209 4.0 18.0 0.00 0.00 0.00 100 956.0
20260504130134 73 175 6.0 22.0 0.00 0.00 0.00 100 956.0
20260504120301 73 181 6.0 23.0 0.00 0.00 0.00 100 956.4
20260504120158 74 184 5.0 22.0 0.00 0.00 0.00 100 956.4
20260504110638 73 194 4.0 19.0 0.00 0.00 0.00 100 956.9
20260504110435 72 184 4.0 19.0 0.00 0.00 0.00 100 956.8
20260504110231 73 188 5.0 17.0 0.00 0.00 0.00 100 956.8
20260504110118 73 198 3.0 14.0 0.00 0.00 0.00 100 956.9
20260504100557 71 182 4.0 12.0 0.00 0.00 0.00 100 957.5
20260504100454 71 186 4.0 14.0 0.00 0.00 0.00 100 957.5
20260504100251 71 188 5.0 15.0 0.00 0.00 0.00 100 957.5
20260504090118 69 180 3.0 13.0 0.00 0.00 0.00 100 957.7
20260504082000 66 179 6.0 20.0 0.00 0.00 0.00 100 957.8
20260504081757 65 179 7.0 20.0 0.00 0.00 0.00 100 957.7
20260504081553 65 170 8.0 23.0 0.00 0.00 0.00 100 957.6
20260504081452 65 165 11.0 23.0 0.00 0.00 0.00 100 957.9
20260504081351 65 163 12.0 24.0 0.00 0.00 0.00 100 957.6
20260504081148 65 163 8.0 24.0 0.00 0.00 0.00 100 957.6
20260504080944 65 182 5.0 22.0 0.00 0.00 0.00 100 957.8
20260504080845 65 176 6.0 22.0 0.00 0.00 0.00 100 957.9
20260504080742 65 174 7.0 22.0 0.00 0.00 0.00 100 957.6
20260504080539 65 164 10.0 22.0 0.00 0.00 0.00 100 957.7
20260504080336 64 166 9.0 22.0 0.00 0.00 0.00 100 957.7
20260504080236 64 170 8.0 22.0 0.00 0.00 0.00 100 957.6
20260504080133 65 178 7.0 22.0 0.00 0.00 0.00 100 957.8
20260504070405 64 193 2.0 11.0 0.00 0.00 0.00 100 957.9
20260504070201 64 171 5.0 20.0 0.00 0.00 0.00 100 957.8
20260504060234 61 205 2.0 9.0 0.00 0.00 0.00 100 957.6